#timestamp,LO_Frequency,Hit,StdDev 
1552435215.4,286046997.4,N
1552435235.3,286046997.3,N
1552435255.1,286046997.3,N
1552435275.8,286046996.8,N
1552435295.7,286046996.9,N
1552435315.5,286046998.6,N
1552435335.3,286047001.0,N
1552435355.2,286047001.2,N
1552435375.0,286046998.6,N
1552435375.9,286046998.6,N
1552435395.8,286046999.2,N
1552435415.6,286046998.9,N
1552435435.4,286046996.8,N
1552435455.3,286046998.9,N
1552435475.1,286046999.3,N
1552435495.8,286046999.4,N
1552435515.7,286046998.9,N
1552435535.5,286047000.0,N
1552435555.4,286047001.1,N
1552435575.2,286047002.7,N
1552435595.0,286047002.7,N
1552435595.9,286047002.7,N
1552435615.8,286047000.2,N
1552435635.6,286047004.0,N
1552435655.4,286047004.3,N
1552435675.3,286047002.1,N
1552435695.1,286046999.7,N
1552435715.9,286047002.2,N
1552435735.7,286047000.8,N
1552435755.5,286047000.6,N
1552435775.4,286046999.0,N
1552435795.2,286046998.4,N
1552435815.0,286046998.3,N
1552435815.9,286046998.3,N
1552435835.8,286047000.7,N
1552435855.6,286046998.6,N
1552435875.5,286046999.9,N
1552435895.3,286047002.5,N
1552435915.1,286047002.5,N
1552435935.9,286047002.5,N
1552435955.7,286046999.9,N
1552435975.5,286047000.2,N
1552435995.4,286047000.3,N
1552436045.3,286047001.0,E
1552436055.2,286047000.7,N
1552436075.0,286047000.8,P
1552436075.9,286047000.8,P
1552436095.8,286047000.9,Y
1552436115.6,286047000.2,P
1552436135.4,286047002.6,P
1552436155.3,286047001.6,N
1552436175.1,286047003.4,Y
1552436195.8,286047004.1,P
1552436215.7,286047004.3,P
1552436235.5,286047001.3,N
1552436255.3,286047001.7,N
1552436275.2,286047003.6,N
1552436295.0,286047005.5,Y
1552436295.9,286047005.5,P
1552436315.8,286047002.2,N
1552436335.6,286046999.8,N
1552436355.4,286047000.3,N
1552436375.3,286047000.9,N
1552436395.1,286047001.2,N
1552436415.8,286046996.7,N
1552436435.7,286046997.9,N
1552436455.5,286046994.9,N
1552436475.4,286046998.0,N
1552436495.2,286046995.8,N
1552436515.0,286046996.1,N
1552436515.9,286046996.1,N
1552436535.8,286046995.6,N
1552436555.6,286046995.3,N
1552436575.4,286046994.9,N
1552436595.3,286046995.3,N
1552436615.1,286046995.1,N
1552436635.9,286046995.2,N
1552436655.7,286046993.6,N
1552436675.5,286046993.8,N
1552436695.4,286046993.5,N
1552436715.2,286046992.4,N
1552436735.0,286046995.2,N
1552436735.9,286046995.2,N
1552436755.8,286046995.1,N
1552436775.6,286046998.0,N
1552436795.5,286046996.9,N
1552436815.3,286046997.2,N
1552436835.1,286046995.2,N
1552436855.9,286046997.4,N
1552436875.7,286046995.3,N
1552436895.5,286046995.3,N
1552436915.4,286046998.0,N
1552436935.2,286046995.4,N
1552436955.0,286046997.5,N
1552436955.9,286046997.5,N
1552436975.8,286046994.9,Y
1552436995.6,286046999.9,P
1552437015.5,286047003.8,N
1552437035.3,286047007.6,N
1552437055.1,286047006.7,N
1552437075.9,286047007.5,N
1552437095.7,286047009.1,N
1552437115.5,286047004.6,N
1552437135.4,286047005.4,N
1552437155.2,286047005.1,N
1552437175.1,286047005.5,N
1552437176.0,286047005.5,N
1552437195.8,286047005.6,N
1552437215.6,286047004.7,N
1552437235.5,286047006.9,N
1552437255.3,286047004.9,N
1552437275.1,286047003.6,N
1552437295.9,286047003.5,N
1552437315.7,286047002.4,N
1552437335.6,286047001.2,N
1552437355.4,286047000.9,N
1552437375.2,286046998.9,N
1552437395.1,286046999.6,N
1552437396.0,286046999.6,N
1552437415.8,286046994.9,N
1552437435.6,286046997.7,N
1552437455.5,286046997.4,N
1552437475.3,286046997.2,N
1552437495.2,286046999.2,N
1552437515.9,286047001.2,N
1552437535.7,286046998.7,N
1552437555.6,286046999.6,N
1552437575.4,286046997.0,N
1552437595.2,286046997.1,N
1552437615.1,286046997.1,N
1552437616.0,286046997.1,N
1552437635.8,286046994.9,N
1552437655.7,286046996.6,N
1552437675.5,286046999.2,N
1552437695.3,286046998.9,N
1552437715.2,286047000.2,N
1552437735.9,286046999.9,N
1552437755.7,286046998.8,N
1552437775.6,286047001.2,N
1552437795.4,286046999.0,N
1552437815.2,286047001.2,N
1552437835.1,286046998.1,N
1552437836.0,286046998.1,N
1552437855.8,286046998.2,N
1552437875.7,286047000.9,N
1552437895.5,286047001.2,N
1552437915.3,286046999.3,N
1552437935.2,286046996.7,N
1552437955.0,286046995.1,N
1552437955.9,286046995.1,N
1552437975.7,286046999.3,N
1552437995.6,286046997.1,N
1552438015.4,286046997.3,N
1552438035.3,286046996.5,N
1552438055.1,286046998.6,N
1552438056.0,286046998.6,N
1552438075.8,286047000.0,N
1552438095.7,286046999.7,N
1552438115.5,286047001.0,N
1552438135.3,286047000.7,N
1552438155.2,286046999.2,N
1552438175.0,286046999.1,N
1552438175.9,286046999.1,N
1552438195.8,286046996.6,N
1552438215.6,286046997.3,N
1552438235.4,286046997.8,N
1552438255.3,286046998.2,N
1552438275.1,286046998.8,N
1552438295.8,286047001.2,N
1552438315.7,286046998.8,N
1552438335.5,286047000.0,N
1552438355.4,286047001.1,N
1552438375.2,286046998.1,N
1552438395.0,286046999.1,N
1552438395.9,286046999.1,N
1552438415.8,286046997.6,N
1552438435.6,286046997.4,N
1552438455.4,286046997.6,N
1552438475.3,286046995.5,N
1552438495.1,286046995.1,Y
1552438515.9,286046997.2,P
1552438535.7,286046997.3,P
1552438555.5,286046997.2,P
1552438575.4,286046998.7,N
1552438595.2,286046999.9,N
1552438615.0,286047000.6,N
1552438615.9,286047000.6,N
1552438635.8,286047001.1,N
1552438655.6,286047000.6,N
1552438675.5,286047002.5,N
1552438695.3,286047001.8,N
1552438715.1,286047004.4,N
1552438735.9,286047004.0,N
1552438755.7,286047001.5,N
1552438775.5,286047001.6,N
1552438795.4,286047000.4,N
